This demonstration page uses our WeatherBlox Daily Observations layout. Learn more.

Left ArrowRight Arrow

53.62937, 11.41316

Hourly Observations for April 12, 2022

Temp ( °F °C ) Dew Point ( °F °C ) Humidity (%) Winds ( mph kmh ) Pressure ( in mb ) Visibility ( mi km ) Precip ( " mm )
12:20 am 00:20 Mostly Clear 36 2 32 0 87 87 ESE 3 6 30.09 1019 30 48 N/A
12:50 am 00:50 Mostly Clear 34 1 30 -1 87 87 E 3 6 30.09 1019 30 48 N/A
1:20 am 01:20 Mostly Clear 36 2 32 0 87 87 ESE 2 4 30.09 1019 30 48 N/A
1:50 am 01:50 Mostly Clear 34 1 30 -1 87 87 ESE 2 4 30.09 1019 30 48 N/A
2:20 am 02:20 Mostly Clear 34 1 30 -1 87 87 E 3 6 30.06 1018 30 48 N/A
2:50 am 02:50 Mostly Clear 36 2 32 0 87 87 ESE 3 6 30.06 1018 30 48 N/A
3:20 am 03:20 Mostly Clear 36 2 30 -1 81 81 ESE 5 7 30.06 1018 30 48 N/A
3:50 am 03:50 Mostly Clear 34 1 30 -1 87 87 E 5 7 30.06 1018 30 48 N/A
4:20 am 04:20 Mostly Clear 32 0 28 -2 87 87 ENE 6 9 30.06 1018 30 48 N/A
4:50 am 04:50 Mostly Clear 34 1 28 -2 81 81 ENE 5 7 30.06 1018 30 48 N/A
5:20 am 05:20 Mostly Clear 34 1 28 -2 81 81 E 5 7 30.03 1017 7 11 N/A
5:50 am 05:50 Mostly Clear 37 3 30 -1 75 75 E 5 7 30.03 1017 7 11 N/A
6:20 am 06:20 Mostly Clear 36 2 30 -1 81 81 E 5 7 30.06 1018 7 11 N/A
6:50 am 06:50 Mostly Sunny 37 3 30 -1 75 75 E 6 9 30.06 1018 7 11 N/A
7:20 am 07:20 Mostly Sunny 37 3 30 -1 75 75 E 6 9 30.06 1018 7 11 N/A
7:50 am 07:50 Mostly Sunny 39 4 32 0 75 75 E 6 9 30.06 1018 7 11 N/A
8:20 am 08:20 Mostly Sunny 41 5 34 1 76 76 E 6 9 30.06 1018 7 11 N/A
8:50 am 08:50 Mostly Sunny 43 6 32 0 66 66 ESE 5 7 30.06 1018 7 11 N/A
9:20 am 09:20 Mostly Sunny 45 7 34 1 66 66 ESE 6 9 30.06 1018 7 11 N/A
9:50 am 09:50 Mostly Sunny 45 7 34 1 66 66 E 6 9 30.06 1018 7 11 N/A
10:20 am 10:20 Mostly Sunny 46 8 34 1 62 62 ESE 7 11 30.06 1018 7 11 N/A
10:50 am 10:50 Mostly Sunny 48 9 34 1 58 58 ESE 7 11 30.06 1018 7 11 N/A
11:20 am 11:20 Mostly Sunny 50 10 34 1 54 54 ESE 8 13 30.06 1018 7 11 N/A
11:50 am 11:50 Mostly Sunny 52 11 34 1 50 50 ESE 9 15 30.06 1018 7 11 N/A
12:20 pm 12:20 Mostly Sunny 54 12 34 1 47 47 SE 10 17 30.03 1017 7 11 N/A
12:50 pm 12:50 Mostly Sunny 55 13 34 1 44 44 ESE 12 19 30.03 1017 7 11 N/A
1:20 pm 13:20 Mostly Sunny 55 13 34 1 44 44 SE 9 15 30.03 1017 7 11 N/A
1:50 pm 13:50 Mostly Sunny 57 14 36 2 44 44 ESE 10 17 30.03 1017 7 11 N/A
2:20 pm 14:20 Mostly Sunny 57 14 34 1 41 41 ESE 13 20 30.03 1017 7 11 N/A
2:50 pm 14:50 Mostly Sunny 59 15 36 2 42 42 ESE 12 19 30.00 1016 7 11 N/A
3:20 pm 15:20 Mostly Sunny 59 15 34 1 39 39 ESE 10 17 30.00 1016 7 11 N/A
3:50 pm 15:50 Mostly Sunny 59 15 34 1 39 39 ESE 12 19 29.97 1015 7 11 N/A
4:20 pm 16:20 Mostly Sunny 59 15 34 1 39 39 SE 9 15 29.97 1015 7 11 N/A
4:50 pm 16:50 Mostly Sunny 61 16 34 1 36 36 SE 9 15 29.97 1015 7 11 N/A
5:20 pm 17:20 Mostly Sunny 61 16 36 2 39 39 SE 8 13 29.97 1015 7 11 N/A
5:50 pm 17:50 Mostly Sunny 61 16 34 1 36 36 ESE 10 17 29.97 1015 7 11 N/A
6:20 pm 18:20 Mostly Sunny 59 15 34 1 39 39 ESE 8 13 29.97 1015 7 11 N/A
6:50 pm 18:50 Mostly Sunny 59 15 34 1 39 39 ESE 7 11 29.97 1015 7 11 N/A
7:20 pm 19:20 Mostly Sunny 57 14 34 1 41 41 ESE 6 9 29.97 1015 7 11 N/A
7:50 pm 19:50 Mostly Sunny 57 14 32 0 39 39 VRB 6 9 29.97 1015 7 11 N/A
8:20 pm 20:20 Mostly Clear 55 13 32 0 41 41 ESE 8 13 29.97 1015 7 11 N/A
8:50 pm 20:50 Mostly Clear 57 14 30 -1 36 36 ESE 9 15 29.94 1014 7 11 N/A
9:20 pm 21:20 Mostly Clear 55 13 32 0 41 41 ESE 8 13 29.94 1014 7 11 N/A
9:50 pm 21:50 Mostly Clear 55 13 32 0 41 41 ESE 6 9 29.97 1015 30 48 N/A
10:20 pm 22:20 Partly Cloudy 54 12 32 0 44 44 ESE 6 9 29.97 1015 30 48 N/A
10:50 pm 22:50 Mostly Cloudy 54 12 34 1 47 47 E 6 9 29.97 1015 30 48 N/A
11:20 pm 23:20 Mostly Cloudy 52 11 34 1 50 50 E 7 11 29.97 1015 30 48 N/A
11:50 pm 23:50 Mostly Clear 52 11 34 1 50 50 ESE 6 9 29.97 1015 30 48 N/A

Powered by AerisWeather